Wind_Speed
44 44 45 46 47 47 44 39 34 32 32 33 35 38 39 39 38 37 34 32 32 32 31 29 28 27 26 24 23 21 19 18 17 16 14 13 12 11 9 8 7 6 6 5 5 6 6 6 6
47 47 49 50 51 50 44 38 35 32 34 37 39 40 40 40 39 37 35 34 34 34 32 31 30 29 27 26 24 23 21 20 19 17 16 15 13 12 11 9 9 8 7 6 6 6 7 7 7
50 51 53 54 55 51 45 39 37 36 38 40 41 42 42 41 40 38 37 36 35 35 34 33 32 31 29 28 26 25 23 21 20 19 18 16 14 13 12 11 10 9 8 8 7 7 7 7 7
54 54 57 59 57 50 46 43 41 40 41 43 44 44 43 41 40 39 39 38 37 36 36 35 33 33 31 29 28 26 25 23 22 20 19 17 16 15 14 12 11 11 10 9 8 8 8 8 8
56 58 60 62 58 52 48 46 45 44 44 45 46 46 44 42 41 41 41 40 39 38 37 36 36 34 33 31 29 28 27 25 24 22 21 19 18 17 15 14 13 12 11 10 9 9 9 9 9
59 61 64 64 60 55 51 49 49 48 47 48 49 48 46 44 43 43 42 42 41 40 39 38 37 36 35 33 31 30 28 27 25 24 22 21 20 19 17 16 15 14 13 11 11 11 10 10 9
61 63 65 64 61 58 54 52 52 50 50 50 51 50 47 46 45 45 44 44 43 42 41 39 38 37 36 34 33 31 30 28 27 26 24 23 21 20 19 18 17 15 14 13 12 12 12 11 11
61 64 66 65 63 59 56 55 55 54 52 52 54 53 49 48 47 47 46 46 45 44 43 41 40 39 37 36 34 33 32 30 29 27 26 24 23 22 21 19 18 17 16 15 14 13 13 12 12
61 65 66 64 62 60 58 58 58 57 56 55 55 55 52 51 50 49 48 48 46 45 44 43 41 40 39 37 36 35 33 32 30 29 27 26 25 24 22 21 20 19 18 17 16 15 14 14 13
61 64 64 61 61 60 59 59 59 60 59 57 56 56 55 53 52 51 50 49 47 46 45 44 43 41 40 39 38 36 34 33 32 31 29 27 26 25 24 23 21 20 19 18 17 17 16 15 15
59 61 59 60 61 61 60 60 60 61 60 59 58 57 57 55 53 52 50 49 48 47 47 45 44 43 42 40 39 37 36 35 34 32 30 29 27 27 26 24 23 22 20 20 19 18 17 17 16
57 57 58 58 60 62 62 62 62 62 60 60 60 60 58 57 55 53 52 50 49 49 48 47 46 45 43 42 40 39 38 36 35 34 32 31 29 28 27 26 24 23 22 21 20 20 19 18 17
55 55 56 57 60 62 62 63 63 63 61 62 62 62 60 59 58 56 54 52 50 49 49 48 47 46 45 43 42 40 39 38 37 35 34 32 31 30 28 27 26 25 23 23 22 21 21 20 19
50 53 53 54 56 59 62 63 64 62 62 63 63 63 62 60 60 58 57 54 52 50 49 49 48 47 46 45 43 42 41 40 39 37 35 34 33 31 30 29 27 26 25 24 23 23 22 22 21
47 50 51 51 53 56 59 63 63 60 62 64 64 64 64 62 61 59 57 56 54 51 50 49 49 48 47 46 45 44 42 41 40 39 37 36 34 33 31 30 29 27 26 26 25 24 23 23 22
43 47 49 48 51 53 57 61 60 60 61 63 63 64 65 63 62 60 58 57 56 53 51 50 49 49 48 47 46 45 43 42 42 41 39 37 36 34 33 31 30 29 28 27 27 26 25 24 24
40 43 44 45 48 51 55 57 57 59 60 61 62 62 64 64 63 61 59 59 57 55 53 51 50 49 48 47 46 45 44 43 43 42 40 38 37 36 34 33 32 30 29 29 28 27 27 26 26
37 39 41 42 45 49 53 54 55 56 59 60 61 62 63 64 63 62 60 60 59 57 55 53 51 51 50 49 47 46 45 44 44 43 42 40 39 37 35 34 33 31 30 30 30 29 28 28 27
34 35 37 39 43 46 49 52 53 54 57 60 60 61 62 63 63 63 62 60 59 58 56 55 52 50 50 49 47 46 45 44 43 43 43 42 40 38 37 35 34 33 32 31 31 30 29 29 29
32 33 34 36 40 45 46 49 49 52 55 58 59 59 61 62 63 63 63 62 60 59 57 55 54 51 49 48 48 47 46 45 44 44 43 43 41 40 38 36 35 34 33 32 32 31 31 31 30
30 32 32 34 36 41 44 46 46 49 53 56 59 59 59 62 63 64 64 62 61 59 57 55 53 52 50 48 49 48 46 46 45 44 43 43 42 41 39 38 37 35 34 33 33 32 31 31 31
29 29 31 33 35 38 41 44 43 46 50 54 57 59 59 60 62 63 64 64 62 59 57 56 54 52 51 50 49 47 46 45 43 43 43 43 43 42 41 39 38 36 35 34 34 33 33 33 32
27 28 30 31 34 37 38 42 41 43 47 51 54 57 59 60 61 63 63 64 62 60 58 56 55 53 52 51 49 47 46 45 45 44 44 44 43 43 42 40 39 37 36 35 35 34 34 33 33
26 26 27 29 31 34 34 39 41 40 42 47 50 53 57 59 61 63 63 64 63 61 60 58 56 54 53 51 49 47 46 45 45 44 44 44 43 42 41 40 39 38 36 36 35 35 34 34 34
23 23 24 25 28 29 30 36 38 37 39 44 48 51 55 59 60 62 63 63 64 62 60 58 57 55 54 52 49 46 46 45 45 44 44 43 42 41 40 40 39 38 37 36 36 35 35 35 35
20 20 22 23 26 27 28 32 36 35 36 41 45 48 53 58 60 61 63 62 62 62 60 58 57 55 54 53 50 47 46 45 45 45 44 43 42 41 41 41 40 39 38 37 36 36 36 35 35
19 20 21 23 23 25 26 31 33 34 35 39 43 46 50 56 59 61 63 63 62 61 60 59 58 56 54 53 51 49 47 45 45 45 45 43 42 41 41 41 41 40 39 38 37 36 36 36 36
19 19 20 21 20 21 23 27 30 33 34 38 41 44 48 52 56 59 62 62 63 62 61 59 58 57 55 54 53 51 48 47 45 45 45 44 42 42 41 41 41 40 39 38 37 37 36 37 36
20 19 19 21 21 20 21 24 27 29 32 36 40 43 45 48 52 56 59 61 61 62 61 60 59 58 57 55 54 53 50 48 47 46 45 45 44 42 42 42 42 41 40 39 38 38 37 37 37
21 21 20 22 23 23 23 22 25 26 29 33 38 41 44 46 49 53 55 58 61 61 61 60 57 57 57 55 54 53 52 50 49 47 46 46 45 44 43 43 42 42 41 40 39 39 38 38 38
Wind_Direction
267 264 262 260 258 257 257 256 254 250 247 243 241 240 239 239 238 238 235 231 230 229 229 229 228 226 224 223 222 222 222 223 223 224 225 229 235 238 241 243 243 247 258 272 287 296 299 305 308
267 264 261 259 257 257 257 256 253 250 244 241 239 239 239 238 238 236 235 231 229 228 227 227 227 226 224 223 222 223 223 224 224 225 227 230 234 236 237 239 241 244 253 267 281 291 293 296 300
266 263 261 259 258 258 258 255 251 246 242 240 239 238 238 238 237 235 234 232 230 228 226 225 226 226 224 223 223 223 223 225 225 226 228 230 233 233 234 236 239 244 252 264 276 283 286 288 293
264 262 260 259 258 258 257 253 249 244 241 240 239 238 237 236 236 234 232 231 229 228 226 225 224 225 224 223 223 223 223 225 226 227 228 231 232 232 233 235 239 243 251 260 271 276 279 281 287
263 261 260 259 258 257 255 252 248 244 240 238 238 237 236 234 233 232 231 230 229 227 226 224 224 224 224 224 223 224 224 225 226 227 229 230 232 232 233 235 238 244 249 256 265 269 273 277 283
263 261 259 259 258 256 253 249 246 243 239 237 237 236 234 233 231 230 229 228 227 226 225 224 223 223 223 223 224 225 225 225 226 227 229 230 232 233 234 235 239 244 248 254 260 265 269 272 279
262 261 260 260 258 254 251 248 245 242 238 236 236 234 232 231 230 229 229 227 226 225 225 224 223 222 223 223 224 225 225 225 226 228 230 230 232 233 235 236 239 243 247 252 257 261 266 267 273
263 260 259 258 257 253 249 246 243 240 236 234 234 233 231 230 229 228 228 227 226 225 224 224 223 222 222 223 224 225 226 226 227 228 230 230 231 233 235 237 240 242 246 250 255 259 263 265 270
262 258 258 257 255 252 247 243 241 238 235 232 232 232 229 229 228 228 227 226 225 226 225 223 223 222 222 223 224 225 226 227 227 228 229 230 231 233 234 237 240 242 245 249 253 256 260 263 267
261 259 258 256 254 250 245 242 239 237 234 231 230 230 229 228 227 227 226 226 225 225 225 224 223 222 222 223 223 225 226 227 227 228 229 230 232 233 235 237 239 241 244 247 251 255 258 261 265
262 260 258 253 250 247 243 239 236 235 232 230 229 228 227 226 226 226 226 225 224 224 224 223 223 223 223 223 224 225 226 227 227 227 228 230 232 233 235 237 239 242 244 246 250 254 257 260 263
261 258 254 250 247 244 241 237 234 233 230 228 227 226 225 225 224 224 224 224 224 223 223 222 222 223 223 223 224 225 225 226 227 227 228 230 232 234 236 238 240 242 244 246 249 253 256 258 262
261 256 252 248 245 243 240 236 233 230 228 227 225 224 223 223 222 222 222 222 222 222 222 222 222 223 223 224 224 225 225 226 226 227 229 230 232 234 237 239 240 243 244 246 249 252 256 258 261
262 256 251 247 244 242 239 235 232 228 227 226 225 223 223 221 221 221 221 221 221 221 222 222 222 223 224 224 224 225 225 225 225 226 228 230 232 234 237 238 240 243 245 246 249 253 256 258 261
263 257 250 245 242 240 239 236 231 227 227 225 224 222 222 220 220 220 220 220 220 221 221 221 222 223 224 224 225 225 225 226 226 226 228 230 232 234 236 238 240 242 244 246 249 253 255 258 261
263 258 251 244 241 237 237 235 229 227 225 224 223 221 221 219 219 218 219 219 219 220 220 220 222 223 223 224 225 225 225 226 226 227 228 230 232 234 236 238 241 242 245 247 249 253 256 258 261
263 259 253 244 241 238 237 235 229 228 225 222 221 221 220 219 218 217 218 218 219 219 219 220 221 222 223 224 224 225 225 225 226 227 228 230 232 234 236 238 241 243 246 248 250 253 256 258 261
264 260 255 247 241 239 236 233 229 227 225 221 220 219 219 218 217 217 217 218 218 219 219 219 220 222 223 224 224 224 224 225 226 227 228 230 232 234 236 238 241 244 246 249 250 252 255 258 260
265 261 257 249 242 241 238 234 229 226 224 221 219 218 218 217 216 216 216 216 218 218 218 219 219 221 222 224 224 224 225 226 226 228 229 230 232 234 236 239 242 244 247 249 250 252 255 258 260
264 263 258 251 245 242 239 235 230 226 224 221 218 217 217 216 216 216 215 216 216 218 218 218 220 220 221 223 224 224 225 225 226 227 229 231 232 234 237 239 242 245 248 250 252 253 255 257 260
264 264 260 255 247 243 239 234 229 226 224 221 218 217 215 215 215 215 216 216 216 217 218 218 219 220 221 222 224 224 225 225 226 227 229 231 232 234 237 239 243 245 248 250 252 254 256 258 260
265 262 259 255 250 245 241 238 228 227 223 220 218 217 215 214 215 215 216 216 216 217 218 218 219 220 220 221 223 225 225 226 226 227 229 231 233 234 237 240 242 245 247 249 252 254 256 258 260
269 265 260 255 251 247 242 242 229 227 224 220 218 218 216 214 214 215 215 216 216 217 218 218 219 219 220 221 222 224 225 225 225 227 229 231 233 236 238 240 242 244 246 249 252 254 256 258 260
271 267 261 256 252 249 243 245 234 226 223 220 218 217 216 215 215 215 215 215 215 215 217 218 218 219 219 221 222 224 224 225 226 227 230 231 233 235 238 240 241 244 246 248 252 254 255 257 260
272 267 263 259 255 250 243 243 234 224 222 220 218 216 215 215 215 215 215 215 215 215 215 217 218 219 219 220 222 223 224 224 226 227 229 231 233 234 237 238 240 242 245 248 251 253 255 258 260
271 264 259 261 261 254 246 242 232 224 220 219 217 215 215 214 214 214 215 215 216 216 215 216 217 218 219 220 221 222 223 224 225 227 229 230 232 233 235 237 238 241 244 247 251 254 256 258 261
268 262 257 257 259 256 247 238 233 227 222 219 218 217 216 215 215 215 215 215 216 216 216 217 217 217 218 220 220 221 223 223 225 226 228 229 231 233 235 236 238 240 243 247 251 254 256 258 261
269 264 258 254 254 254 249 240 234 227 224 221 219 219 217 215 216 216 216 216 217 217 217 218 218 217 218 219 220 220 222 224 225 227 228 229 231 232 234 236 238 241 244 247 250 253 255 258 261
266 258 254 250 248 250 247 239 234 230 226 223 221 220 219 216 216 216 216 217 217 218 217 217 218 218 218 219 219 220 221 223 225 226 227 229 231 233 235 237 239 241 243 247 250 253 255 258 261
266 259 254 250 246 244 244 235 232 230 227 224 221 219 219 217 216 216 216 216 217 218 217 216 217 218 219 220 220 220 222 223 225 226 227 228 230 232 235 237 239 241 244 247 250 252 255 258 261
Height
5781 5782 5783 5783 5785 5786 5791 5798 5803 5806 5808 5809 5809 5810 5813 5817 5820 5826 5829 5832 5834 5837 5840 5843 5846 5849 5851 5854 5856 5859 5861 5863 5864 5866 5868 5869 5870 5871 5873 5874 5874 5875 5876 5877 5877 5877 5877 5877 5877
5772 5772 5772 5772 5773 5777 5784 5792 5796 5800 5800 5800 5801 5803 5806 5809 5814 5818 5823 5826 5829 5832 5835 5838 5842 5845 5847 5850 5853 5855 5857 5859 5861 5863 5865 5867 5868 5869 5870 5872 5873 5874 5875 5875 5876 5876 5876 5876 5876
5760 5760 5760 5760 5762 5769 5777 5784 5788 5790 5790 5791 5793 5795 5798 5803 5808 5812 5817 5820 5824 5827 5830 5833 5837 5840 5843 5846 5849 5851 5854 5856 5858 5860 5862 5864 5865 5867 5868 5870 5871 5872 5873 5873 5874 5874 5874 5874 5875
5748 5747 5747 5748 5752 5762 5769 5774 5777 5779 5781 5782 5784 5787 5792 5798 5802 5806 5810 5813 5818 5821 5825 5828 5832 5835 5838 5841 5844 5847 5850 5852 5855 5857 5859 5861 5862 5864 5866 5867 5869 5870 5871 5872 5872 5872 5873 5873 5873
5733 5732 5732 5733 5742 5752 5758 5762 5765 5768 5771 5773 5775 5779 5784 5790 5793 5798 5802 5806 5811 5815 5819 5823 5826 5830 5833 5837 5840 5843 5846 5848 5851 5853 5855 5858 5859 5861 5863 5865 5866 5867 5868 5869 5870 5870 5871 5871 5871
5718 5717 5717 5720 5730 5740 5745 5749 5752 5757 5761 5763 5765 5770 5776 5781 5785 5789 5794 5799 5803 5808 5812 5816 5820 5824 5828 5832 5835 5838 5841 5844 5847 5849 5852 5854 5856 5858 5860 5862 5863 5865 5866 5867 5868 5868 5868 5869 5869
5703 5701 5702 5708 5716 5724 5732 5735 5739 5744 5749 5753 5755 5759 5767 5772 5776 5780 5785 5790 5795 5800 5805 5810 5814 5818 5822 5826 5830 5833 5836 5839 5842 5845 5847 5850 5852 5855 5857 5859 5860 5862 5863 5864 5865 5866 5866 5866 5867
5685 5684 5685 5692 5700 5709 5717 5720 5725 5729 5736 5740 5742 5749 5758 5762 5766 5771 5776 5782 5787 5793 5798 5803 5808 5812 5816 5820 5824 5828 5831 5835 5838 5841 5843 5846 5848 5851 5853 5855 5857 5858 5860 5861 5862 5863 5863 5864 5864
5666 5666 5668 5678 5685 5693 5700 5704 5709 5715 5720 5726 5731 5739 5746 5751 5756 5761 5767 5773 5779 5785 5791 5796 5801 5806 5810 5814 5818 5822 5826 5830 5833 5836 5839 5842 5844 5847 5849 5851 5853 5855 5856 5858 5859 5860 5860 5861 5862
5648 5647 5656 5665 5668 5673 5680 5686 5692 5698 5705 5714 5720 5727 5733 5739 5746 5752 5758 5765 5772 5778 5784 5789 5794 5799 5804 5808 5812 5816 5820 5824 5828 5831 5834 5837 5840 5842 5845 5847 5849 5851 5853 5854 5856 5856 5857 5858 5859
5631 5633 5641 5645 5650 5654 5661 5668 5674 5681 5691 5701 5708 5714 5720 5727 5735 5742 5749 5756 5763 5769 5775 5781 5787 5792 5797 5801 5806 5810 5815 5818 5822 5826 5829 5832 5835 5838 5840 5843 5845 5847 5849 5851 5852 5853 5854 5855 5855
5615 5618 5622 5627 5631 5635 5642 5649 5657 5665 5679 5687 5693 5699 5706 5715 5724 5732 5740 5747 5753 5759 5766 5772 5778 5784 5789 5794 5799 5804 5808 5813 5817 5820 5824 5827 5830 5833 5836 5838 5841 5843 5845 5846 5848 5849 5850 5851 5852
5598 5602 5605 5609 5613 5618 5624 5631 5640 5651 5663 5669 5677 5685 5694 5703 5712 5721 5728 5736 5743 5750 5757 5763 5770 5776 5781 5787 5792 5797 5802 5806 5810 5814 5818 5822 5825 5828 5831 5834 5836 5838 5840 5842 5844 5845 5846 5847 5848
5584 5585 5589 5593 5597 5602 5608 5615 5624 5639 5648 5654 5663 5673 5682 5691 5700 5709 5717 5725 5733 5741 5748 5755 5761 5767 5773 5779 5785 5790 5795 5799 5804 5808 5812 5816 5819 5823 5826 5828 5831 5833 5836 5838 5839 5840 5842 5843 5843
5569 5570 5574 5579 5583 5588 5592 5598 5612 5628 5631 5639 5649 5660 5669 5679 5688 5697 5707 5716 5724 5732 5739 5746 5752 5758 5765 5771 5777 5782 5787 5792 5797 5801 5806 5810 5813 5817 5820 5823 5826 5828 5831 5833 5834 5836 5837 5838 5839
5555 5556 5560 5568 5570 5574 5578 5585 5603 5608 5614 5624 5636 5646 5656 5666 5676 5687 5696 5705 5713 5721 5729 5736 5743 5750 5756 5762 5768 5774 5780 5785 5790 5794 5799 5803 5807 5811 5814 5817 5820 5823 5825 5827 5829 5831 5832 5833 5834
5543 5544 5548 5555 5558 5561 5565 5573 5587 5593 5600 5611 5622 5632 5643 5654 5665 5676 5685 5694 5703 5711 5719 5727 5734 5741 5748 5754 5760 5766 5772 5777 5782 5787 5792 5797 5801 5804 5808 5811 5814 5817 5820 5822 5824 5825 5827 5828 5829
5535 5535 5538 5543 5547 5549 5553 5561 5572 5579 5587 5598 5609 5619 5630 5642 5655 5665 5675 5684 5693 5701 5709 5717 5725 5732 5739 5745 5751 5758 5764 5769 5775 5780 5785 5790 5794 5798 5802 5805 5808 5811 5814 5816 5818 5820 5821 5822 5823
5527 5527 5529 5534 5537 5538 5543 5550 5559 5567 5575 5585 5595 5606 5618 5631 5643 5653 5663 5673 5682 5691 5700 5708 5716 5723 5730 5737 5744 5750 5756 5762 5768 5773 5777 5782 5787 5791 5795 5799 5802 5805 5807 5809 5812 5813 5815 5816 5817
5519 5519 5522 5525 5528 5529 5533 5540 5548 5556 5564 5575 5585 5596 5607 5619 5631 5642 5652 5662 5672 5682 5691 5699 5707 5715 5722 5730 5736 5742 5748 5754 5759 5764 5770 5775 5780 5784 5788 5792 5795 5798 5801 5803 5805 5807 5809 5810 5811
5512 5513 5515 5517 5519 5522 5525 5530 5540 5548 5555 5564 5574 5585 5596 5608 5620 5631 5642 5652 5662 5672 5682 5691 5699 5707 5714 5721 5727 5733 5739 5745 5751 5757 5763 5768 5772 5777 5781 5784 5788 5791 5794 5796 5798 5800 5802 5804 5805
5507 5508 5507 5509 5511 5514 5519 5521 5532 5540 5547 5555 5566 5576 5586 5598 5609 5621 5632 5643 5653 5663 5673 5681 5690 5697 5705 5712 5718 5725 5732 5739 5745 5750 5755 5760 5764 5769 5773 5777 5781 5784 5787 5789 5791 5794 5795 5797 5798
5501 5501 5501 5502 5504 5507 5512 5514 5524 5531 5539 5548 5559 5568 5579 5589 5600 5611 5622 5634 5644 5653 5662 5671 5679 5688 5696 5703 5711 5717 5724 5731 5736 5741 5747 5752 5757 5761 5765 5770 5773 5776 5779 5782 5784 5787 5788 5790 5791
5495 5496 5496 5497 5498 5501 5508 5509 5516 5526 5534 5543 5552 5560 5570 5580 5590 5601 5612 5622 5632 5642 5652 5661 5669 5678 5687 5694 5702 5709 5716 5722 5728 5733 5739 5744 5749 5753 5758 5762 5765 5769 5772 5775 5777 5779 5781 5783 5784
5491 5492 5492 5492 5493 5497 5502 5503 5512 5521 5528 5535 5543 5551 5560 5570 5580 5590 5601 5611 5622 5632 5642 5651 5660 5669 5678 5685 5693 5701 5708 5714 5720 5725 5730 5736 5741 5746 5750 5754 5757 5761 5764 5767 5770 5772 5774 5775 5776
5488 5488 5490 5490 5490 5493 5496 5499 5508 5515 5521 5526 5533 5541 5549 5559 5569 5579 5590 5601 5611 5622 5632 5642 5651 5660 5669 5677 5685 5692 5699 5705 5711 5717 5723 5728 5733 5737 5741 5745 5749 5753 5756 5759 5762 5764 5766 5768 5769
5484 5485 5486 5486 5486 5488 5491 5496 5502 5508 5514 5520 5526 5533 5541 5550 5559 5569 5580 5590 5601 5611 5622 5632 5641 5651 5660 5668 5676 5683 5690 5697 5703 5709 5715 5720 5725 5729 5733 5737 5741 5745 5749 5752 5754 5757 5759 5760 5761
5481 5481 5482 5483 5483 5484 5488 5492 5497 5503 5508 5514 5520 5526 5534 5542 5551 5560 5570 5580 5591 5602 5612 5622 5631 5641 5650 5659 5666 5674 5682 5689 5695 5700 5706 5712 5716 5720 5724 5729 5733 5737 5741 5744 5747 5749 5751 5752 5754
5478 5478 5478 5479 5480 5481 5484 5490 5492 5497 5502 5507 5513 5520 5527 5534 5542 5551 5561 5571 5582 5592 5602 5612 5622 5631 5640 5649 5657 5665 5672 5679 5686 5691 5698 5703 5708 5712 5717 5721 5725 5729 5733 5736 5738 5741 5743 5744 5746
5473 5473 5474 5475 5476 5477 5479 5486 5488 5492 5496 5500 5506 5512 5519 5526 5535 5543 5553 5563 5572 5582 5592 5602 5612 5622 5631 5640 5648 5656 5663 5670 5676 5683 5689 5694 5699 5704 5708 5712 5716 5720 5724 5727 5730 5732 5734 5736 5738